Find Starlink 31625

NORAD ID: 59458 Int'l Des: 2024-068 Owner: SPXS Country: US Constellation: starlink operational
LEOCIRCULAR

現在のビュー

3D地球を読み込み中...

About Starlink 31625

Starlink 31625 (NORAD 59458) is a starlink constellation satellite (v2 mini) launched Apr 10, 2024 by SPXS of US. It operates in LEO, CIRCULAR orbit with a mass of 730.00 kg.

Starlink 31625について

説明を読み込み中...

次回通過

Passes for default location (London). Set your location on the main map for personalized predictions.

高度履歴

Loading altitude history...

軌道要素

1 59458U 24068D 26169.72356013 .00000120 00000-0 13888-4 0 9997
2 59458 43.0022 184.0088 0001370 271.5708 88.4986 15.27578021123977
Epoch: Jun 18, 2026 • Age: 10 hours

現在のステータス

高度 482.4 km
速度 7.63 km/s
衛星直下点 8.78°N, 32.12°E
打ち上げ日 Apr 10, 2024
運用期間 2.1 years
タイプ internet

技術仕様

分類 Payload
質量 730.00 kg
乾燥質量 700.00 kg
総質量 730.00 kg
長さ 0.30 m
直径 4.10 m
スパン 29.00 m
形状 Box + pan
製造者 SPXS
バスタイプ Starlink V2M
フェーズステータス In Orbit
所有者/国 SPXS/US

Most Searched